Voltar ao catálogo

PRAETORIAN SDA_501

AtivoPO
NORAD 100059·PAYLOAD·🇺🇸 United States

Lançado Jul 16, 2026 de Vandenberg Space Force Base

Loading…

Próximas Passagens (próximas 24 horas)

TLE

AtualizadoSource: Space-Track

Época: Sep 13, 2026, 23:20 UTC

1 A0059U 26163A   26256.97236635  .00000155  00000-0  12473-3 0  9995
2 A0059  81.4780 255.9263 0014123  56.0482 304.2016 13.85492050  8193

Acompanhe PRAETORIAN SDA_501 em tempo real com AllMySat

Download on the App Store